Regional Weather Roundup
Issued by NWS

Home | Current Version | Previous Version | Text Only | Print | Product List | Glossary Off
Versions: 1 2 3 4 5 6 7 8 9 10 11 12 13 14 15 16 17 18 19 20 21 22 23 24 25 26 27

000
ASUS45 KBOI 201310
RWRID

IDAHO REGIONAL WEATHER ROUNDUP
NATIONAL WEATHER SERVICE BOISE ID
700 AM MDT WED SEP 20 2017

NOTE: "FAIR" INDICATES FEW OR NO CLOUDS BELOW 12000 FEET
WITH NO SIGNIFICANT WEATHER AND/OR OBSTRUCTIONS TO VISIBILITY

IDZ012-014-201400-
SOUTHWEST IDAHO


CITY           SKY/WX    TMP DP  RH WIND       PRES   REMARKS
BOISE          CLOUDY    51  36  56 SE14      29.75S
CALDWELL       MOCLDY    48  39  71 E8        29.73F
MOUNTAIN HOME  PTCLDY    44  38  79 E14       29.78F
$$

IDZ016-017-201400-
SOUTHCENTRAL IDAHO


CITY           SKY/WX    TMP DP  RH WIND       PRES   REMARKS
BURLEY         CLEAR     41  30  65 SW8       29.83F
JEROME         MOCLDY    44  33  65 SE9       29.83F
TWIN FALLS     MOCLDY    45  29  53 S13       29.83F
$$

IDZ019>023-201400-
SOUTHEAST IDAHO


CITY           SKY/WX    TMP DP  RH WIND       PRES   REMARKS
IDAHO FALLS    MOCLDY    41  32  70 SW9       29.88F
POCATELLO      CLOUDY    43  35  73 E5        29.88F
REXBURG        CLOUDY    39  31  72 SW3       29.87S
$$

IDZ006-010-011-018-031-032-201400-
CENTRAL IDAHO MOUNTAINS


CITY           SKY/WX    TMP DP  RH WIND       PRES   REMARKS
MCCALL         RAIN      38  35  89 S14       29.69F WCI  30
HAILEY         MOCLDY    36  32  87 NW3       29.86F
STANLEY          N/A     35  31  85 S10G20    29.75F WCI  27
SALMON         PTCLDY    37  36  96 CALM      29.71F
CHALLIS        PTCLDY    40  29  64 CALM      29.74F
$$

IDZ002-004-006-007-026-201400-
NORTHERN IDAHO


CITY           SKY/WX    TMP DP  RH WIND       PRES   REMARKS
LEWISTON       CLOUDY    49  41  74 S12       29.64F
LOWELL           N/A     46  43  89 VRB3      29.72F
COEUR D`ALENE  MOCLDY    43  41  93 CALM      29.64S
MULLAN PASS    FOG       30  29  96 VRB5      29.61S VSB 1/4 WCI  25
$$




USA.gov is the U.S. government's official web portal to all federal, state and local government web resources and services.